TimeEDT,TemperatureF,Dew PointF,Humidity,Sea Level PressureIn,VisibilityMPH,Wind Direction,Wind SpeedMPH,Gust SpeedMPH,PrecipitationIn,Events,Conditions,WindDirDegrees,DateUTC
12:25 AM,61.0,59.0,93,29.97,1.0,SSE,6.9,-,N/A,,Mist,150,2012-10-03 04:25:00
12:53 AM,61.0,59.0,93,29.94,1.0,SE,6.9,-,N/A,,Overcast,140,2012-10-03 04:53:00
1:53 AM,61.0,59.0,93,29.95,1.0,SSE,5.8,-,N/A,,Overcast,150,2012-10-03 05:53:00
2:46 AM,61.0,59.0,93,29.98,0.8,SE,4.6,-,N/A,,Mist,140,2012-10-03 06:46:00
2:53 AM,61.0,59.0,93,29.94,0.8,SE,5.8,-,N/A,,Mist,140,2012-10-03 06:53:00
3:53 AM,61.0,59.0,93,29.96,0.8,SSE,5.8,-,N/A,,Mist,160,2012-10-03 07:53:00
4:53 AM,61.0,59.0,93,29.97,0.5,SSE,3.5,-,N/A,Fog,Fog,160,2012-10-03 08:53:00
5:53 AM,61.0,59.0,93,29.99,0.5,SSE,4.6,-,N/A,Fog,Fog,150,2012-10-03 09:53:00
6:21 AM,61.0,59.0,93,30.02,0.2,SE,3.5,-,N/A,Fog,Fog,130,2012-10-03 10:21:00
6:53 AM,61.0,59.0,93,30.00,0.2,SE,4.6,-,N/A,Fog,Fog,140,2012-10-03 10:53:00
7:53 AM,61.0,59.0,93,30.03,0.2,SSE,3.5,-,N/A,Fog,Fog,160,2012-10-03 11:53:00
8:13 AM,61.0,59.0,93,30.05,0.5,Calm,Calm,-,N/A,Fog,Fog,0,2012-10-03 12:13:00
8:31 AM,62.1,60.1,93,30.06,1.5,Calm,Calm,-,N/A,,Overcast,0,2012-10-03 12:31:00
8:36 AM,62.1,60.1,93,30.06,3.0,Calm,Calm,-,N/A,,Overcast,0,2012-10-03 12:36:00
8:51 AM,62.6,60.8,94,30.06,7.0,Variable,3.5,-,N/A,,Overcast,0,2012-10-03 12:51:00
8:53 AM,63.0,60.1,90,30.04,7.0,Variable,3.5,-,N/A,,Overcast,0,2012-10-03 12:53:00
9:53 AM,64.0,61.0,90,30.06,8.0,Variable,3.5,-,N/A,,Overcast,0,2012-10-03 13:53:00
10:46 AM,66.0,61.0,84,30.09,10.0,West,5.8,-,N/A,,Overcast,270,2012-10-03 14:46:00
10:53 AM,66.9,62.1,84,30.07,10.0,Variable,5.8,-,N/A,,Overcast,0,2012-10-03 14:53:00
11:12 AM,66.9,61.0,81,30.09,10.0,Variable,3.5,-,N/A,,Overcast,0,2012-10-03 15:12:00
11:35 AM,69.1,60.1,73,30.10,10.0,WSW,8.1,-,N/A,,Mostly Cloudy,250,2012-10-03 15:35:00
11:53 AM,70.0,60.1,71,30.06,10.0,West,9.2,-,N/A,,Mostly Cloudy,280,2012-10-03 15:53:00
12:11 PM,71.1,60.1,68,30.09,10.0,West,8.1,-,N/A,,Mostly Cloudy,280,2012-10-03 16:11:00
12:21 PM,71.1,60.1,68,30.09,10.0,West,8.1,-,N/A,,Mostly Cloudy,280,2012-10-03 16:21:00
12:53 PM,72.0,59.0,64,30.06,10.0,SW,9.2,-,N/A,,Mostly Cloudy,230,2012-10-03 16:53:00
1:53 PM,73.0,57.9,59,30.06,10.0,SSW,9.2,-,N/A,,Mostly Cloudy,200,2012-10-03 17:53:00
2:53 PM,73.0,57.0,57,30.06,10.0,WSW,6.9,-,N/A,,Mostly Cloudy,240,2012-10-03 18:53:00
3:53 PM,73.0,55.9,55,30.06,10.0,Variable,4.6,-,N/A,,Scattered Clouds,0,2012-10-03 19:53:00
4:53 PM,73.0,57.0,57,30.07,10.0,West,6.9,-,N/A,,Overcast,270,2012-10-03 20:53:00
5:53 PM,72.0,55.9,57,30.08,10.0,Variable,3.5,-,N/A,,Overcast,0,2012-10-03 21:53:00
6:53 PM,69.1,55.9,63,30.10,10.0,SSW,3.5,-,N/A,,Clear,210,2012-10-03 22:53:00
7:53 PM,66.0,55.0,68,30.12,10.0,SSW,3.5,-,N/A,,Clear,200,2012-10-03 23:53:00
8:53 PM,64.0,55.0,73,30.13,10.0,Calm,Calm,-,N/A,,Clear,0,2012-10-04 00:53:00
9:53 PM,62.1,55.9,80,30.14,10.0,Calm,Calm,-,N/A,,Clear,0,2012-10-04 01:53:00
10:53 PM,59.0,55.0,87,30.15,10.0,Calm,Calm,-,N/A,,Clear,0,2012-10-04 02:53:00
11:53 PM,62.1,57.0,84,30.14,10.0,Calm,Calm,-,N/A,,Clear,0,2012-10-04 03:53:00